| time (UTC) | temp F | wind direction | speed knots | gust knots | rain 1hr in | rain 24hr in | rain mn in | humidity % | barometer mb |
| 20260510174009 | 83 | 206 | 0.9 | 4.3 | 0.00 | 0.00 | 0.00 | 38 | 1014.0 |
| 20260510173504 | 82 | 289 | 0.0 | 3.5 | 0.00 | 0.00 | 0.00 | 36 | 1013.9 |
| 20260510173020 | 83 | 109 | 0.9 | 3.5 | 0.00 | 0.00 | 0.00 | 38 | 1013.9 |
| 20260510172509 | 81 | 248 | 0.0 | 3.5 | 0.00 | 0.00 | 0.00 | 40 | 1014.0 |
| 20260510172007 | 82 | 28 | 0.0 | 5.2 | 0.00 | 0.00 | 0.00 | 37 | 1014.0 |
| 20260510171521 | 82 | 272 | 0.9 | 5.2 | 0.00 | 0.00 | 0.00 | 43 | 1013.9 |
| 20260510171009 | 81 | 319 | 0.9 | 5.2 | 0.00 | 0.00 | 0.00 | 43 | 1014.1 |
| 20260510170506 | 81 | 262 | 0.9 | 5.2 | 0.00 | 0.00 | 0.00 | 41 | 1014.1 |
| 20260510170021 | 81 | 341 | 0.9 | 4.3 | 0.00 | 0.00 | 0.00 | 38 | 1014.2 |
| 20260510165509 | 81 | 355 | 1.7 | 4.3 | 0.00 | 0.00 | 0.00 | 40 | 1014.4 |
| 20260510165005 | 81 | 111 | 0.9 | 5.2 | 0.00 | 0.00 | 0.00 | 43 | 1014.5 |
| 20260510164542 | 80 | 308 | 0.0 | 5.2 | 0.00 | 0.00 | 0.00 | 39 | 1014.4 |
| 20260510164009 | 81 | 360 | 1.7 | 5.2 | 0.00 | 0.00 | 0.00 | 38 | 1014.5 |
| 20260510163506 | 81 | 123 | 0.0 | 5.2 | 0.00 | 0.00 | 0.00 | 40 | 1014.5 |
| 20260510163021 | 80 | 136 | 0.9 | 3.5 | 0.00 | 0.00 | 0.00 | 45 | 1014.4 |
| 20260510162511 | 79 | 134 | 0.0 | 5.2 | 0.00 | 0.00 | 0.00 | 45 | 1014.5 |
| 20260510162007 | 80 | 151 | 1.7 | 5.2 | 0.00 | 0.00 | 0.00 | 42 | 1014.5 |
| 20260510161523 | 80 | 328 | 1.7 | 5.2 | 0.00 | 0.00 | 0.00 | 45 | 1014.5 |
| 20260510161012 | 80 | 346 | 0.9 | 3.5 | 0.00 | 0.00 | 0.00 | 44 | 1014.6 |
| 20260510160508 | 80 | 137 | 0.9 | 2.6 | 0.00 | 0.00 | 0.00 | 44 | 1014.7 |
| 20260510160034 | 80 | 77 | 0.0 | 2.6 | 0.00 | 0.00 | 0.00 | 46 | 1014.6 |
| 20260510155513 | 79 | 152 | 0.9 | 3.5 | 0.00 | 0.00 | 0.00 | 44 | 1014.7 |
| 20260510155007 | 78 | 302 | 0.9 | 3.5 | 0.00 | 0.00 | 0.00 | 50 | 1014.7 |
| 20260510154525 | 78 | 325 | 0.9 | 3.5 | 0.00 | 0.00 | 0.00 | 44 | 1014.6 |
| 20260510154005 | 79 | 360 | 0.0 | 4.3 | 0.00 | 0.00 | 0.00 | 56 | 1014.7 |
| 20260510153509 | 79 | 121 | 1.7 | 4.3 | 0.00 | 0.00 | 0.00 | 46 | 1014.8 |
| 20260510153030 | 79 | 112 | 0.9 | 3.5 | 0.00 | 0.00 | 0.00 | 52 | 1014.8 |
| 20260510152510 | 79 | 44 | 0.0 | 1.7 | 0.00 | 0.00 | 0.00 | 47 | 1014.8 |
| 20260510152010 | 78 | 164 | 0.0 | 4.3 | 0.00 | 0.00 | 0.00 | 47 | 1014.9 |
| 20260510151526 | 77 | 31 | 0.9 | 4.3 | 0.00 | 0.00 | 0.00 | 46 | 1014.8 |
| 20260510151007 | 77 | 110 | 0.0 | 2.6 | 0.00 | 0.00 | 0.00 | 51 | 1014.9 |
| 20260510150507 | 77 | 302 | 0.0 | 4.3 | 0.00 | 0.00 | 0.00 | 51 | 1015.0 |
| 20260510150024 | 77 | 45 | 0.9 | 4.3 | 0.00 | 0.00 | 0.00 | 49 | 1015.0 |
| 20260510145509 | 77 | 312 | 1.7 | 3.5 | 0.00 | 0.00 | 0.00 | 49 | 1015.0 |
| 20260510145007 | 76 | 5 | 0.9 | 2.6 | 0.00 | 0.00 | 0.00 | 54 | 1014.9 |
| 20260510144527 | 76 | 333 | 0.0 | 2.6 | 0.00 | 0.00 | 0.00 | 52 | 1014.9 |
| 20260510144007 | 76 | 355 | 0.9 | 2.6 | 0.00 | 0.00 | 0.00 | 51 | 1015.0 |
| 20260510143508 | 76 | 10 | 0.0 | 3.5 | 0.00 | 0.00 | 0.00 | 52 | 1015.0 |
| 20260510143034 | 75 | 349 | 0.9 | 3.5 | 0.00 | 0.00 | 0.00 | 53 | 1014.9 |
| 20260510142508 | 74 | 49 | 0.0 | 2.6 | 0.00 | 0.00 | 0.00 | 55 | 1014.9 |
| 20260510142010 | 73 | 321 | 0.9 | 3.5 | 0.00 | 0.00 | 0.00 | 55 | 1014.8 |
| 20260510141527 | 73 | 360 | 1.7 | 3.5 | 0.00 | 0.00 | 0.00 | 56 | 1014.8 |
| 20260510141006 | 72 | 346 | 0.0 | 2.6 | 0.00 | 0.00 | 0.00 | 59 | 1014.7 |
| 20260510140511 | 72 | 32 | 0.0 | 3.5 | 0.00 | 0.00 | 0.00 | 59 | 1014.8 |
| 20260510140030 | 71 | 60 | 0.9 | 3.5 | 0.00 | 0.00 | 0.00 | 61 | 1014.9 |
| 20260510135507 | 71 | 12 | 0.0 | 3.5 | 0.00 | 0.00 | 0.00 | 61 | 1014.8 |
| 20260510135010 | 70 | 17 | 0.9 | 3.5 | 0.00 | 0.00 | 0.00 | 64 | 1014.7 |
| 20260510134528 | 69 | 27 | 0.0 | 1.7 | 0.00 | 0.00 | 0.00 | 70 | 1014.6 |
| 20260510134006 | 69 | 355 | 0.0 | 1.7 | 0.00 | 0.00 | 0.00 | 67 | 1014.5 |
| 20260510133508 | 68 | 355 | 0.0 | 2.6 | 0.00 | 0.00 | 0.00 | 68 | 1014.6 |
| 20260510133026 | 68 | 36 | 0.0 | 2.6 | 0.00 | 0.00 | 0.00 | 70 | 1014.6 |
| 20260510132509 | 67 | 127 | 0.0 | 4.3 | 0.00 | 0.00 | 0.00 | 70 | 1014.6 |
| 20260510132011 | 67 | 23 | 0.0 | 4.3 | 0.00 | 0.00 | 0.00 | 71 | 1014.8 |
| 20260510131527 | 67 | 360 | 0.9 | 3.5 | 0.00 | 0.00 | 0.00 | 71 | 1014.9 |
| 20260510131008 | 66 | 344 | 0.9 | 3.5 | 0.00 | 0.00 | 0.00 | 74 | 1014.8 |
| 20260510130508 | 65 | 5 | 0.9 | 3.5 | 0.00 | 0.00 | 0.00 | 76 | 1014.8 |
| 20260510130033 | 65 | 355 | 0.9 | 3.5 | 0.00 | 0.00 | 0.00 | 77 | 1014.7 |
| 20260510125506 | 64 | 5 | 0.0 | 1.7 | 0.00 | 0.00 | 0.00 | 78 | 1014.5 |
| 20260510125008 | 63 | 351 | 0.0 | 2.6 | 0.00 | 0.00 | 0.00 | 79 | 1014.5 |
| 20260510124538 | 63 | 352 | 0.0 | 2.6 | 0.00 | 0.00 | 0.00 | 81 | 1014.4 |
| 20260510124010 | 62 | 360 | 0.0 | 3.5 | 0.00 | 0.00 | 0.00 | 82 | 1014.5 |
| 20260510123511 | 61 | 337 | 0.0 | 3.5 | 0.00 | 0.00 | 0.00 | 84 | 1014.5 |
| 20260510123028 | 60 | 360 | 0.0 | 0.9 | 0.00 | 0.00 | 0.00 | 88 | 1014.6 |
| 20260510122510 | 59 | 340 | 0.0 | 2.6 | 0.00 | 0.00 | 0.00 | 91 | 1014.5 |
| 20260510122011 | 59 | 340 | 0.0 | 2.6 | 0.00 | 0.00 | 0.00 | 93 | 1014.4 |
| 20260510121528 | 58 | 352 | 0.0 | 1.7 | 0.00 | 0.00 | 0.00 | 95 | 1014.3 |
| 20260510121009 | 57 | 55 | 0.0 | 1.7 | 0.00 | 0.00 | 0.00 | 96 | 1014.2 |
| 20260510120504 | 57 | 94 | 0.0 | 0.0 | 0.00 | 0.00 | 0.00 | 96 | 1014.1 |
| 20260510120007 | 56 | 94 | 0.0 | 0.0 | 0.00 | 0.00 | 0.00 | 96 | 1013.9 |
| 20260510115506 | 56 | 94 | 0.0 | 0.0 | 0.00 | 0.00 | 0.00 | 96 | 1013.9 |
| 20260510115005 | 55 | 105 | 0.0 | 0.0 | 0.00 | 0.00 | 0.00 | 95 | 1013.9 |
| 20260510114512 | 55 | 105 | 0.0 | 0.0 | 0.00 | 0.00 | 0.00 | 95 | 1013.9 |
| 20260510114004 | 55 | 105 | 0.0 | 0.0 | 0.00 | 0.00 | 0.00 | 95 | 1013.8 |
| 20260510113505 | 54 | 105 | 0.0 | 0.0 | 0.00 | 0.00 | 0.00 | 95 | 1013.8 |
| 20260510113013 | 54 | 105 | 0.0 | 0.0 | 0.00 | 0.00 | 0.00 | 95 | 1013.7 |
| 20260510112503 | 54 | 105 | 0.0 | 0.0 | 0.00 | 0.00 | 0.00 | 95 | 1013.6 |
| 20260510112004 | 53 | 105 | 0.0 | 0.0 | 0.00 | 0.00 | 0.00 | 95 | 1013.6 |
| 20260510111508 | 53 | 105 | 0.0 | 0.0 | 0.00 | 0.00 | 0.00 | 95 | 1013.5 |
| 20260510111004 | 53 | 105 | 0.0 | 0.0 | 0.00 | 0.00 | 0.00 | 95 | 1013.4 |
| 20260510110507 | 53 | 105 | 0.0 | 0.0 | 0.00 | 0.00 | 0.00 | 94 | 1013.4 |
| 20260510110010 | 53 | 105 | 0.0 | 0.0 | 0.00 | 0.00 | 0.00 | 94 | 1013.4 |
| 20260510105504 | 52 | 105 | 0.0 | 0.0 | 0.00 | 0.00 | 0.00 | 94 | 1013.3 |
| 20260510105007 | 52 | 105 | 0.0 | 0.0 | 0.00 | 0.00 | 0.00 | 94 | 1013.3 |
| 20260510104512 | 52 | 105 | 0.0 | 0.0 | 0.00 | 0.00 | 0.00 | 94 | 1013.3 |
| 20260510104006 | 52 | 195 | 0.0 | 0.0 | 0.00 | 0.00 | 0.00 | 94 | 1013.1 |
| 20260510103505 | 52 | 195 | 0.0 | 0.0 | 0.00 | 0.00 | 0.00 | 94 | 1013.0 |
| 20260510103007 | 52 | 195 | 0.0 | 0.0 | 0.00 | 0.00 | 0.00 | 94 | 1012.9 |
| 20260510102503 | 53 | 195 | 0.0 | 0.0 | 0.00 | 0.00 | 0.00 | 94 | 1012.8 |
| 20260510102003 | 53 | 195 | 0.0 | 0.0 | 0.00 | 0.00 | 0.00 | 94 | 1012.7 |
| 20260510101508 | 53 | 195 | 0.0 | 0.0 | 0.00 | 0.00 | 0.00 | 93 | 1012.7 |
| 20260510101003 | 53 | 195 | 0.0 | 0.0 | 0.00 | 0.00 | 0.00 | 93 | 1012.6 |
| 20260510100507 | 53 | 195 | 0.0 | 0.0 | 0.00 | 0.00 | 0.00 | 93 | 1012.5 |
| 20260510100010 | 53 | 352 | 0.0 | 0.0 | 0.00 | 0.00 | 0.00 | 93 | 1012.4 |
| 20260510095505 | 53 | 352 | 0.0 | 0.0 | 0.00 | 0.00 | 0.00 | 93 | 1012.4 |
| 20260510095005 | 54 | 352 | 0.0 | 0.0 | 0.00 | 0.00 | 0.00 | 93 | 1012.4 |
| 20260510094511 | 54 | 352 | 0.0 | 0.0 | 0.00 | 0.00 | 0.00 | 93 | 1012.3 |
| 20260510094004 | 54 | 352 | 0.0 | 0.0 | 0.00 | 0.00 | 0.00 | 93 | 1012.3 |
| 20260510093507 | 54 | 352 | 0.0 | 0.0 | 0.00 | 0.00 | 0.00 | 93 | 1012.2 |
| 20260510093012 | 54 | 352 | 0.0 | 0.0 | 0.00 | 0.00 | 0.00 | 93 | 1012.3 |
| 20260510092503 | 54 | 352 | 0.0 | 0.0 | 0.00 | 0.00 | 0.00 | 93 | 1012.3 |
| 20260510092009 | 55 | 352 | 0.0 | 0.0 | 0.00 | 0.00 | 0.00 | 93 | 1012.2 |
| 20260510091517 | 55 | 352 | 0.0 | 0.0 | 0.00 | 0.00 | 0.00 | 93 | 1012.2 |
| 20260510091003 | 55 | 352 | 0.0 | 0.0 | 0.00 | 0.00 | 0.00 | 93 | 1012.2 |
| 20260510090506 | 55 | 352 | 0.0 | 0.0 | 0.00 | 0.00 | 0.00 | 93 | 1012.1 |
| 20260510090014 | 55 | 352 | 0.0 | 0.0 | 0.00 | 0.00 | 0.00 | 93 | 1012.0 |
| 20260510085505 | 55 | 352 | 0.0 | 0.0 | 0.00 | 0.00 | 0.00 | 92 | 1011.9 |
| 20260510085004 | 55 | 352 | 0.0 | 0.0 | 0.00 | 0.00 | 0.00 | 92 | 1011.9 |
| 20260510084512 | 56 | 352 | 0.0 | 0.0 | 0.00 | 0.00 | 0.00 | 92 | 1011.9 |
| 20260510084006 | 56 | 352 | 0.0 | 0.0 | 0.00 | 0.00 | 0.00 | 92 | 1011.9 |
| 20260510083510 | 56 | 352 | 0.0 | 0.0 | 0.00 | 0.00 | 0.00 | 92 | 1011.9 |
| 20260510083012 | 56 | 352 | 0.0 | 0.0 | 0.00 | 0.00 | 0.00 | 92 | 1011.9 |
| 20260510082505 | 56 | 352 | 0.0 | 0.0 | 0.00 | 0.00 | 0.00 | 92 | 1011.9 |
| 20260510082006 | 57 | 352 | 0.0 | 0.0 | 0.00 | 0.00 | 0.00 | 92 | 1011.8 |
| 20260510081528 | 57 | 352 | 0.0 | 0.0 | 0.00 | 0.00 | 0.00 | 91 | 1011.7 |
| 20260510081007 | 57 | 352 | 0.0 | 0.0 | 0.00 | 0.00 | 0.00 | 91 | 1011.7 |
| 20260510080508 | 57 | 352 | 0.0 | 0.0 | 0.00 | 0.00 | 0.00 | 91 | 1011.7 |
| 20260510080013 | 57 | 352 | 0.0 | 0.0 | 0.00 | 0.00 | 0.00 | 91 | 1011.6 |
| 20260510075506 | 58 | 352 | 0.0 | 0.0 | 0.00 | 0.00 | 0.00 | 91 | 1011.7 |
| 20260510075006 | 58 | 352 | 0.0 | 0.0 | 0.00 | 0.00 | 0.00 | 90 | 1011.6 |
| 20260510074513 | 58 | 352 | 0.0 | 0.0 | 0.00 | 0.00 | 0.00 | 90 | 1011.6 |
| 20260510074009 | 58 | 352 | 0.0 | 0.0 | 0.00 | 0.00 | 0.00 | 90 | 1011.6 |
| 20260510073509 | 59 | 352 | 0.0 | 0.0 | 0.00 | 0.00 | 0.00 | 89 | 1011.6 |
| 20260510073025 | 59 | 352 | 0.0 | 0.0 | 0.00 | 0.00 | 0.00 | 89 | 1011.6 |
| 20260510072505 | 59 | 352 | 0.0 | 0.0 | 0.00 | 0.00 | 0.00 | 89 | 1011.6 |
| 20260510072006 | 60 | 352 | 0.0 | 0.0 | 0.00 | 0.00 | 0.00 | 89 | 1011.6 |
| 20260510071516 | 60 | 352 | 0.0 | 0.0 | 0.00 | 0.00 | 0.00 | 88 | 1011.6 |
| 20260510071009 | 60 | 352 | 0.0 | 0.0 | 0.00 | 0.00 | 0.00 | 88 | 1011.5 |
| 20260510070506 | 61 | 352 | 0.0 | 0.0 | 0.00 | 0.00 | 0.00 | 87 | 1011.4 |
| 20260510070023 | 61 | 352 | 0.0 | 0.0 | 0.00 | 0.00 | 0.00 | 87 | 1011.5 |
| 20260510065506 | 61 | 352 | 0.0 | 0.0 | 0.00 | 0.00 | 0.00 | 87 | 1011.5 |
| 20260510065009 | 62 | 352 | 0.0 | 0.0 | 0.00 | 0.00 | 0.00 | 87 | 1011.5 |
| 20260510064542 | 62 | 352 | 0.0 | 1.7 | 0.00 | 0.00 | 0.00 | 86 | 1011.5 |
| 20260510064005 | 62 | 352 | 0.0 | 1.7 | 0.00 | 0.00 | 0.00 | 86 | 1011.5 |
| 20260510063509 | 62 | 19 | 0.0 | 0.9 | 0.00 | 0.00 | 0.00 | 86 | 1011.6 |
| 20260510063019 | 63 | 19 | 0.0 | 0.9 | 0.00 | 0.00 | 0.00 | 85 | 1011.6 |
| 20260510062506 | 63 | 19 | 0.0 | 0.9 | 0.00 | 0.00 | 0.00 | 85 | 1011.6 |
| 20260510062007 | 63 | 27 | 0.0 | 1.7 | 0.00 | 0.00 | 0.00 | 85 | 1011.6 |
| 20260510061530 | 63 | 5 | 0.0 | 1.7 | 0.00 | 0.00 | 0.00 | 84 | 1011.6 |
| 20260510061006 | 63 | 5 | 0.0 | 1.7 | 0.00 | 0.00 | 0.00 | 84 | 1011.5 |
| 20260510060508 | 63 | 30 | 0.0 | 1.7 | 0.00 | 0.00 | 0.00 | 84 | 1011.6 |
| 20260510060026 | 63 | 5 | 0.0 | 1.7 | 0.00 | 0.00 | 0.00 | 84 | 1011.6 |
| 20260510055510 | 64 | 46 | 0.0 | 0.9 | 0.00 | 0.00 | 0.00 | 83 | 1011.5 |
| 20260510055001 | 64 | 32 | 0.0 | 1.7 | 0.00 | 0.00 | 0.00 | 83 | 1011.4 |
| 20260510054510 | 64 | 10 | 0.0 | 1.7 | 0.00 | 0.00 | 0.00 | 83 | 1011.6 |
| 20260510054007 | 64 | 315 | 0.0 | 2.6 | 0.00 | 0.00 | 0.00 | 83 | 1011.7 |
| 20260510053506 | 64 | 81 | 0.0 | 4.3 | 0.00 | 0.00 | 0.00 | 83 | 1011.6 |
| 20260510053012 | 64 | 90 | 0.0 | 3.5 | 0.00 | 0.00 | 0.00 | 82 | 1011.6 |
| 20260510052505 | 64 | 355 | 0.0 | 1.7 | 0.00 | 0.00 | 0.00 | 82 | 1011.6 |
| 20260510052007 | 64 | 101 | 0.0 | 1.7 | 0.00 | 0.00 | 0.00 | 82 | 1011.6 |
| 20260510051514 | 64 | 103 | 0.0 | 1.7 | 0.00 | 0.00 | 0.00 | 81 | 1011.6 |
| 20260510051006 | 65 | 76 | 0.0 | 1.7 | 0.00 | 0.00 | 0.00 | 81 | 1011.7 |
| 20260510050502 | 65 | 127 | 0.0 | 1.7 | 0.00 | 0.00 | 0.00 | 81 | 1011.6 |
| 20260510050014 | 65 | 150 | 0.0 | 3.5 | 0.00 | 0.00 | 0.00 | 80 | 1011.7 |
| 20260510045504 | 65 | 122 | 0.9 | 3.5 | 0.00 | 0.00 | 0.00 | 80 | 1011.6 |
| 20260510045010 | 65 | 144 | 0.0 | 3.5 | 0.00 | 0.00 | 0.00 | 80 | 1011.6 |
| 20260510044516 | 65 | 153 | 0.0 | 1.7 | 0.00 | 0.00 | 0.00 | 80 | 1011.6 |
| 20260510044004 | 65 | 160 | 0.0 | 1.7 | 0.00 | 0.00 | 0.00 | 79 | 1011.6 |
| 20260510043504 | 65 | 197 | 0.0 | 2.6 | 0.00 | 0.00 | 0.00 | 79 | 1011.6 |
| 20260510043019 | 65 | 165 | 0.0 | 3.5 | 0.00 | 0.00 | 0.00 | 79 | 1011.6 |
| 20260510042503 | 65 | 117 | 0.0 | 6.1 | 0.00 | 0.00 | 0.00 | 78 | 1011.5 |
| 20260510042009 | 65 | 143 | 0.0 | 6.1 | 0.00 | 0.00 | 0.00 | 78 | 1011.5 |
| 20260510041517 | 65 | 78 | 0.0 | 1.7 | 0.00 | 0.00 | 0.00 | 78 | 1011.5 |
| 20260510041003 | 65 | 198 | 0.0 | 2.6 | 0.00 | 0.00 | 0.00 | 78 | 1011.5 |
| 20260510040506 | 65 | 165 | 0.0 | 2.6 | 0.00 | 0.00 | 0.00 | 78 | 1011.5 |
| 20260510040018 | 65 | 175 | 0.0 | 4.3 | 0.00 | 0.00 | 0.00 | 77 | 1011.4 |
| 20260510035502 | 65 | 142 | 0.0 | 4.3 | 0.00 | 0.00 | 0.00 | 77 | 1011.4 |
| 20260510035006 | 65 | 179 | 0.0 | 0.9 | 0.00 | 0.00 | 0.00 | 77 | 1011.4 |
| 20260510034521 | 65 | 150 | 0.0 | 1.7 | 0.00 | 0.00 | 0.00 | 77 | 1011.3 |
| 20260510034003 | 65 | 123 | 0.0 | 1.7 | 0.00 | 0.00 | 0.00 | 76 | 1011.3 |
| 20260510033506 | 66 | 127 | 0.0 | 1.7 | 0.00 | 0.00 | 0.00 | 75 | 1011.3 |
| 20260510033019 | 66 | 175 | 0.0 | 1.7 | 0.00 | 0.00 | 0.00 | 75 | 1011.3 |
| 20260510032502 | 66 | 170 | 0.0 | 2.6 | 0.00 | 0.00 | 0.00 | 75 | 1011.2 |
| 20260510032007 | 66 | 194 | 0.0 | 7.0 | 0.00 | 0.00 | 0.00 | 74 | 1011.2 |
| 20260510031522 | 66 | 136 | 0.0 | 7.0 | 0.00 | 0.00 | 0.00 | 74 | 1011.2 |
| 20260510031004 | 66 | 103 | 0.0 | 3.5 | 0.00 | 0.00 | 0.00 | 74 | 1011.2 |
| 20260510030506 | 66 | 146 | 0.0 | 3.5 | 0.00 | 0.00 | 0.00 | 74 | 1011.1 |
| 20260510030019 | 66 | 189 | 0.9 | 3.5 | 0.00 | 0.00 | 0.00 | 73 | 1011.1 |
| 20260510025504 | 67 | 171 | 0.0 | 3.5 | 0.00 | 0.00 | 0.00 | 73 | 1011.2 |
| 20260510025006 | 67 | 194 | 0.9 | 2.6 | 0.00 | 0.00 | 0.00 | 73 | 1011.1 |
| 20260510024528 | 67 | 175 | 0.0 | 4.3 | 0.00 | 0.00 | 0.00 | 72 | 1011.1 |
| 20260510024003 | 67 | 168 | 0.9 | 4.3 | 0.00 | 0.00 | 0.00 | 72 | 1011.0 |
| 20260510023508 | 67 | 189 | 0.0 | 3.5 | 0.00 | 0.00 | 0.00 | 72 | 1011.0 |
| 20260510023025 | 67 | 209 | 0.9 | 4.3 | 0.00 | 0.00 | 0.00 | 72 | 1010.9 |
| 20260510022504 | 67 | 176 | 0.9 | 4.3 | 0.00 | 0.00 | 0.00 | 72 | 1010.9 |
| 20260510022006 | 67 | 165 | 0.0 | 3.5 | 0.00 | 0.00 | 0.00 | 72 | 1010.8 |
| 20260510021522 | 67 | 132 | 0.9 | 2.6 | 0.00 | 0.00 | 0.00 | 72 | 1010.8 |
| 20260510021003 | 66 | 171 | 0.0 | 2.6 | 0.00 | 0.00 | 0.00 | 72 | 1010.7 |
| 20260510020507 | 66 | 113 | 0.0 | 1.7 | 0.00 | 0.00 | 0.00 | 72 | 1010.7 |
| 20260510020024 | 67 | 155 | 0.0 | 0.0 | 0.00 | 0.00 | 0.00 | 72 | 1010.6 |
| 20260510015503 | 67 | 136 | 0.0 | 0.0 | 0.00 | 0.00 | 0.00 | 72 | 1010.5 |
| 20260510015007 | 67 | 130 | 0.0 | 0.0 | 0.00 | 0.00 | 0.00 | 72 | 1010.4 |
| 20260510014529 | 67 | 172 | 0.0 | 0.0 | 0.00 | 0.00 | 0.00 | 72 | 1010.4 |
| 20260510014004 | 67 | 151 | 0.0 | 0.0 | 0.00 | 0.00 | 0.00 | 72 | 1010.3 |
| 20260510013507 | 66 | 149 | 0.0 | 0.0 | 0.00 | 0.00 | 0.00 | 72 | 1010.2 |
| 20260510013025 | 66 | 148 | 0.0 | 0.0 | 0.00 | 0.00 | 0.00 | 72 | 1010.2 |
| 20260510012503 | 66 | 142 | 0.0 | 0.0 | 0.00 | 0.00 | 0.00 | 72 | 1010.2 |
| 20260510012009 | 66 | 154 | 0.0 | 0.0 | 0.00 | 0.00 | 0.00 | 73 | 1010.2 |
| 20260510011528 | 66 | 149 | 0.0 | 0.0 | 0.00 | 0.00 | 0.00 | 73 | 1010.1 |
| 20260510011006 | 66 | 149 | 0.0 | 0.0 | 0.00 | 0.00 | 0.00 | 73 | 1010.0 |
| 20260510010506 | 66 | 149 | 0.0 | 0.0 | 0.00 | 0.00 | 0.00 | 73 | 1009.9 |
| 20260510010025 | 66 | 150 | 0.0 | 0.0 | 0.00 | 0.00 | 0.00 | 73 | 1009.9 |
| 20260510005507 | 66 | 149 | 0.0 | 0.0 | 0.00 | 0.00 | 0.00 | 73 | 1009.9 |
| 20260510005006 | 66 | 149 | 0.0 | 0.0 | 0.00 | 0.00 | 0.00 | 72 | 1009.8 |
| 20260510004526 | 66 | 149 | 0.0 | 1.7 | 0.00 | 0.00 | 0.00 | 73 | 1009.7 |
| 20260510004010 | 66 | 153 | 0.0 | 1.7 | 0.00 | 0.00 | 0.00 | 72 | 1009.6 |
| 20260510003514 | 67 | 151 | 0.0 | 0.0 | 0.00 | 0.00 | 0.00 | 72 | 1009.6 |
| 20260510003034 | 67 | 151 | 0.0 | 0.9 | 0.00 | 0.00 | 0.00 | 71 | 1009.6 |
| 20260510002506 | 67 | 151 | 0.0 | 0.9 | 0.00 | 0.00 | 0.00 | 70 | 1009.6 |
| 20260510002010 | 68 | 151 | 0.0 | 0.9 | 0.00 | 0.00 | 0.00 | 70 | 1009.5 |
| 20260510001528 | 68 | 121 | 0.0 | 0.0 | 0.00 | 0.00 | 0.00 | 70 | 1009.3 |
| 20260510001007 | 69 | 116 | 0.0 | 0.9 | 0.00 | 0.00 | 0.00 | 70 | 1009.4 |
| 20260510000507 | 69 | 116 | 0.0 | 0.9 | 0.00 | 0.00 | 0.00 | 68 | 1009.3 |
| 20260510000030 | 70 | 82 | 0.0 | 0.0 | 0.00 | 0.00 | 0.00 | 68 | 1009.2 |
| 20260509235505 | 70 | 82 | 0.0 | 0.0 | 0.00 | 0.00 | 0.00 | 66 | 1009.2 |
| 20260509235012 | 71 | 82 | 0.0 | 0.0 | 0.00 | 0.00 | 0.00 | 66 | 1009.2 |
| 20260509234536 | 72 | 82 | 0.0 | 0.0 | 0.00 | 0.00 | 0.00 | 64 | 1009.1 |
| 20260509234007 | 72 | 82 | 0.0 | 0.0 | 0.00 | 0.00 | 0.00 | 63 | 1009.0 |
| 20260509233509 | 73 | 38 | 0.0 | 0.0 | 0.00 | 0.00 | 0.00 | 60 | 1009.0 |
| 20260509233039 | 73 | 38 | 0.0 | 0.0 | 0.00 | 0.00 | 0.00 | 57 | 1009.0 |
| 20260509232507 | 73 | 38 | 0.0 | 0.0 | 0.00 | 0.00 | 0.00 | 56 | 1009.1 |
| 20260509232007 | 73 | 38 | 0.0 | 0.0 | 0.00 | 0.00 | 0.00 | 55 | 1009.1 |
| 20260509231512 | 73 | 38 | 0.0 | 0.9 | 0.00 | 0.00 | 0.00 | 56 | 1009.1 |
| 20260509231008 | 74 | 38 | 0.0 | 0.9 | 0.00 | 0.00 | 0.00 | 56 | 1009.1 |
| 20260509230508 | 74 | 41 | 0.0 | 0.9 | 0.00 | 0.00 | 0.00 | 56 | 1009.1 |
| 20260509230012 | 74 | 117 | 0.0 | 0.0 | 0.00 | 0.00 | 0.00 | 56 | 1009.1 |
| 20260509225510 | 74 | 113 | 0.0 | 0.9 | 0.00 | 0.00 | 0.00 | 56 | 1009.0 |
| 20260509225009 | 74 | 113 | 0.0 | 1.7 | 0.00 | 0.00 | 0.00 | 56 | 1009.0 |
| 20260509224516 | 74 | 59 | 0.0 | 1.7 | 0.00 | 0.00 | 0.00 | 54 | 1008.8 |
| 20260509224008 | 74 | 160 | 0.0 | 1.7 | 0.00 | 0.00 | 0.00 | 55 | 1008.9 |
| 20260509223512 | 74 | 117 | 0.0 | 1.7 | 0.00 | 0.00 | 0.00 | 55 | 1008.8 |
| 20260509223016 | 74 | 105 | 0.0 | 1.7 | 0.00 | 0.00 | 0.00 | 54 | 1008.9 |
| 20260509222511 | 74 | 105 | 0.0 | 0.9 | 0.00 | 0.00 | 0.00 | 56 | 1008.8 |
| 20260509222011 | 75 | 113 | 0.0 | 0.9 | 0.00 | 0.00 | 0.00 | 55 | 1008.8 |
| 20260509221513 | 75 | 10 | 0.0 | 0.9 | 0.00 | 0.00 | 0.00 | 54 | 1008.9 |
| 20260509221010 | 75 | 355 | 0.0 | 0.9 | 0.00 | 0.00 | 0.00 | 54 | 1009.0 |
| 20260509220507 | 75 | 101 | 0.0 | 2.6 | 0.00 | 0.00 | 0.00 | 55 | 1009.0 |
| 20260509220020 | 75 | 144 | 0.0 | 2.6 | 0.00 | 0.00 | 0.00 | 54 | 1008.9 |
| 20260509215508 | 75 | 108 | 0.0 | 1.7 | 0.00 | 0.00 | 0.00 | 54 | 1008.8 |
| 20260509215012 | 75 | 107 | 0.0 | 1.7 | 0.00 | 0.00 | 0.00 | 57 | 1008.8 |
| 20260509214516 | 75 | 144 | 0.0 | 1.7 | 0.00 | 0.00 | 0.00 | 57 | 1008.7 |
| 20260509214007 | 75 | 82 | 0.0 | 1.7 | 0.00 | 0.00 | 0.00 | 55 | 1008.7 |
| 20260509213514 | 75 | 26 | 0.0 | 2.6 | 0.00 | 0.00 | 0.00 | 54 | 1008.7 |
| 20260509213016 | 75 | 165 | 0.9 | 2.6 | 0.00 | 0.00 | 0.00 | 54 | 1008.6 |
| 20260509212507 | 75 | 199 | 0.9 | 3.5 | 0.00 | 0.00 | 0.00 | 53 | 1008.7 |
| 20260509212013 | 75 | 178 | 0.0 | 3.5 | 0.00 | 0.00 | 0.00 | 53 | 1008.7 |
| 20260509211520 | 76 | 148 | 0.9 | 3.5 | 0.00 | 0.00 | 0.00 | 51 | 1008.6 |
| 20260509211010 | 77 | 180 | 0.9 | 4.3 | 0.00 | 0.00 | 0.00 | 52 | 1008.7 |
| 20260509210507 | 77 | 306 | 0.9 | 4.3 | 0.00 | 0.00 | 0.00 | 51 | 1008.7 |
| 20260509210024 | 77 | 104 | 0.9 | 2.6 | 0.00 | 0.00 | 0.00 | 51 | 1008.7 |
| 20260509205504 | 77 | 360 | 0.9 | 2.6 | 0.00 | 0.00 | 0.00 | 52 | 1008.7 |
| 20260509205003 | 77 | 324 | 0.9 | 5.2 | 0.00 | 0.00 | 0.00 | 53 | 1008.7 |
| 20260509204520 | 77 | 98 | 0.9 | 5.2 | 0.00 | 0.00 | 0.00 | 51 | 1008.5 |
| 20260509204004 | 77 | 173 | 0.9 | 6.1 | 0.00 | 0.00 | 0.00 | 53 | 1008.5 |
| 20260509203505 | 77 | 171 | 1.7 | 6.1 | 0.00 | 0.00 | 0.00 | 52 | 1008.4 |
| 20260509203032 | 77 | 186 | 0.9 | 7.0 | 0.00 | 0.00 | 0.00 | 53 | 1008.3 |
| 20260509202504 | 77 | 175 | 1.7 | 7.0 | 0.00 | 0.00 | 0.00 | 53 | 1008.4 |
| 20260509202006 | 77 | 136 | 1.7 | 6.1 | 0.00 | 0.00 | 0.00 | 51 | 1008.4 |
| 20260509201522 | 77 | 246 | 0.9 | 7.0 | 0.00 | 0.00 | 0.00 | 52 | 1008.6 |
| 20260509201005 | 78 | 134 | 3.5 | 7.0 | 0.00 | 0.00 | 0.00 | 51 | 1008.6 |
| 20260509200510 | 78 | 173 | 1.7 | 6.1 | 0.00 | 0.00 | 0.00 | 50 | 1008.6 |
| 20260509200024 | 77 | 253 | 0.0 | 6.1 | 0.00 | 0.00 | 0.00 | 53 | 1008.6 |
| 20260509195504 | 77 | 144 | 1.7 | 6.1 | 0.00 | 0.00 | 0.00 | 49 | 1008.7 |
| 20260509195010 | 77 | 96 | 0.0 | 7.8 | 0.00 | 0.00 | 0.00 | 54 | 1008.8 |
| 20260509194530 | 77 | 250 | 2.6 | 7.8 | 0.00 | 0.00 | 0.00 | 52 | 1008.9 |
| 20260509194003 | 76 | 164 | 0.9 | 9.6 | 0.00 | 0.00 | 0.00 | 51 | 1009.0 |
| 20260509193507 | 76 | 9 | 0.9 | 9.6 | 0.00 | 0.00 | 0.00 | 50 | 1009.0 |
| 20260509193025 | 75 | 352 | 0.0 | 5.2 | 0.00 | 0.00 | 0.00 | 54 | 1009.1 |
| 20260509192504 | 74 | 111 | 1.7 | 5.2 | 0.00 | 0.00 | 0.00 | 55 | 1009.2 |
| 20260509192007 | 73 | 188 | 0.9 | 4.3 | 0.00 | 0.00 | 0.00 | 55 | 1009.4 |
| 20260509191526 | 73 | 166 | 0.0 | 7.0 | 0.00 | 0.00 | 0.00 | 55 | 1009.5 |
| 20260509191009 | 74 | 164 | 0.9 | 7.0 | 0.00 | 0.00 | 0.00 | 53 | 1009.4 |
| 20260509190511 | 75 | 122 | 4.3 | 7.0 | 0.00 | 0.00 | 0.00 | 53 | 1009.4 |
| 20260509190026 | 75 | 112 | 0.9 | 7.0 | 0.00 | 0.00 | 0.00 | 54 | 1009.5 |
| 20260509185505 | 75 | 338 | 0.0 | 7.0 | 0.00 | 0.00 | 0.00 | 52 | 1009.6 |
| 20260509185008 | 76 | 150 | 0.0 | 2.6 | 0.00 | 0.00 | 0.00 | 52 | 1009.6 |
| 20260509184537 | 75 | 167 | 0.0 | 2.6 | 0.00 | 0.00 | 0.00 | 55 | 1009.8 |
| 20260509184009 | 74 | 52 | 0.0 | 6.1 | 0.00 | 0.00 | 0.00 | 52 | 1009.8 |
| 20260509183510 | 75 | 268 | 0.0 | 8.7 | 0.00 | 0.00 | 0.00 | 49 | 1009.8 |
| 20260509183032 | 76 | 222 | 1.7 | 8.7 | 0.00 | 0.00 | 0.00 | 51 | 1009.8 |
| 20260509182507 | 76 | 74 | 0.0 | 6.1 | 0.00 | 0.00 | 0.00 | 55 | 1009.9 |
| 20260509182009 | 75 | 175 | 2.6 | 6.1 | 0.00 | 0.00 | 0.00 | 52 | 1010.0 |
| 20260509181505 | 77 | 152 | 1.7 | 3.5 | 0.00 | 0.00 | 0.00 | 51 | 1010.1 |
| 20260509181011 | 76 | 84 | 0.9 | 6.1 | 0.00 | 0.00 | 0.00 | 54 | 1010.2 |
| 20260509180507 | 75 | 163 | 0.9 | 6.1 | 0.00 | 0.00 | 0.00 | 56 | 1010.4 |
| 20260509180015 | 73 | 123 | 0.9 | 7.0 | 0.00 | 0.00 | 0.00 | 55 | 1010.4 |
| 20260509175509 | 74 | 121 | 0.0 | 7.0 | 0.00 | 0.00 | 0.00 | 57 | 1010.4 |
| 20260509175008 | 74 | 153 | 3.5 | 7.0 | 0.00 | 0.00 | 0.00 | 51 | 1010.3 |
| 20260509174508 | 74 | 213 | 2.6 | 7.0 | 0.00 | 0.00 | 0.00 | 55 | 1010.6 |